sat.trackr.live / text

‹ back to catalog

STARLINK-31226

NORAD 58858 · 2024-019F

PAYLOAD ACTIVE UNKNOWN

§ Identity

Operator
Country
US
Launch date
2024-01-29
Launch site
AFETR
Launch vehicle
Mass (kg)
RCS (m²)

Purposes: comms

External: N2YO · Heavens-Above · Gunter

§ Orbital elements

Epoch: 2026-09-20T22:50:52.696320Z

Period
94.27 min
Inclination
43.0004°
Eccentricity
0.0001064
Mean motion
15.27585472 rev/d
Perigee alt
482.3 km
Apogee alt
483.8 km
Semi-major
6,861.2 km
B*
1.8688e-4
RAAN
226.3275°
Arg perigee
277.7888°
Mean anomaly
82.2843°
Rev number
14,894

§ Raw data

STARLINK-312261 58858U 24019F   26263.95199880  .00004885  00000+0  18688-3 0  99962 58858  43.0004 226.3275 0001064 277.7888  82.2843 15.27585472148941

JSON: /api/v1/satellites/58858 · /tle

For live sub-satellite position, see the globe view (requires WebGL).

§ Visibility from observer

Set your observer location to see the next 7 days of passes ≥ 10°. The values pass through the URL so the page stays shareable.

No JS? Fill the form by hand. The geolocation button needs JavaScript.